Canberra, Capital Territory

8:46 AM AEST on August 26, 2016 (GMT +1000)
Canberra

Weather History for 94926 - June, 2013

Change the Weather History Date:

Saturday, June 8, 2013

  Actual Average Record
Temperature  
Mean Temperature 42 °F -  
Max Temperature 57 °F 53 °F - ()
Min Temperature 27 °F 32 °F - ()
Degree Days  
Heating Degree Days 23    
Moisture  
Dew Point 34 °F    
Average Humidity 82    
Maximum Humidity 100    
Minimum Humidity 39    
Precipitation  
Precipitation 0.00 in 0.04 in - ()
Sea Level Pressure  
Sea Level Pressure 30.38 in    
Wind  
Wind Speed 3 mph ()    
Max Wind Speed 8 mph    
Max Gust Speed -    
Visibility 6.0 miles    
Events Fog    
T = Trace of Precipitation, MM = Missing Value Source: Averaged Metar Reports

Daily Weather History Graph

Daily Weather History Graph

Search for Another Location

Airport or City:

Trip Planner

Search our weather history database for the weather conditions in past years. The results will help you decide how hot, cold, wet, or windy it might be!

Date:

Astronomy

Jun. 08, 2013 Rise Set
Actual Time 7:06 AM AEST 4:57 PM AEST
Civil Twilight 6:38 AM AEST 5:25 PM AEST
Nautical Twilight 6:07 AM AEST 5:57 PM AEST
Astronomical Twilight 5:36 AM AEST 6:28 PM AEST
Moon 6:25 AM AEST (6/8) 4:45 PM AEST (6/8)
Length of Visible Light 10h 46m
Length of Day
9h 50m
Waning Crescent, 0% of the Moon is Illuminated
Jun 8
Waning Crescent
Jun 9
New
Jun 17
First Quarter
Jun 23
Full
Jun 30
Last Quarter

Hourly Weather History & Observations

Time (AEST) Temp. Windchill Dew Point Humidity Pressure Visibility Wind Dir Wind Speed Gust Speed Precip Events Conditions
12:00 AM 36 °F - 34 °F 90% 30.37 in - WNW 2.3 mph - -  
12:00 AM 35.6 °F - 33.8 °F 93% 30.33 in 6.2 mi WNW 2.3 mph - N/A   Unknown
12:30 AM 33.8 °F - 33.8 °F 100% 30.33 in 6.2 mi Calm Calm - N/A   Unknown
1:00 AM 35 °F - 32 °F 83% 30.37 in - North 2.3 mph - -  
1:00 AM 33.8 °F - 32.0 °F 93% 30.33 in 6.2 mi North 2.3 mph - N/A   Unknown
1:30 AM 33.8 °F 30.8 °F 32.0 °F 93% 30.33 in 6.2 mi North 3.5 mph - N/A   Unknown
1:58 AM 33.8 °F 29.6 °F 33.8 °F 100% 30.33 in 3.7 mi ESE 4.6 mph - N/A   Unknown
2:00 AM 33.8 °F 30.8 °F 33.8 °F 100% 30.33 in 3.7 mi ESE 3.5 mph - N/A   Unknown
2:14 AM 33.8 °F - 32.0 °F 93% 30.33 in 6.2 mi Calm Calm - N/A   Unknown
2:30 AM 32.0 °F - 32.0 °F 100% 30.33 in 6.2 mi ENE 1.2 mph - N/A   Unknown
3:00 AM 34 °F - 34 °F 100% 30.39 in - East 4.6 mph - -  
3:00 AM 33.8 °F 29.6 °F 33.8 °F 100% 30.33 in 6.2 mi East 4.6 mph - N/A   Unknown
3:30 AM 32.0 °F 27.5 °F 30.2 °F 93% 30.33 in 6.2 mi East 4.6 mph - N/A   Unknown
4:00 AM 31 °F - 30 °F 95% 30.39 in - ENE 3.5 mph - -  
4:00 AM 32.0 °F 28.7 °F 30.2 °F 93% 30.36 in 6.2 mi ENE 3.5 mph - N/A   Unknown
4:30 AM 28.4 °F - 26.6 °F 93% 30.36 in 6.2 mi Calm Calm - N/A   Unknown
5:00 AM 30.2 °F - 30.2 °F 100% 30.36 in 6.2 mi Calm Calm - N/A   Unknown
5:19 AM 30.2 °F - 30.2 °F 100% 30.39 in 3.7 mi Calm Calm - N/A   Unknown
5:30 AM 28.4 °F - 28.4 °F 100% 30.39 in 6.2 mi Calm Calm - N/A   Unknown
6:00 AM 30 °F - 29 °F 95% 30.44 in - Calm Calm - -  
6:00 AM 30.2 °F - 28.4 °F 93% 30.39 in 6.2 mi Calm Calm - N/A   Unknown
6:01 AM 30.2 °F - 28.4 °F 93% 30.39 in 6.2 mi Calm Calm - N/A Fog Patches of Fog
6:30 AM 28.4 °F - 28.4 °F 100% 30.42 in 6.2 mi North 2.3 mph - N/A Fog Patches of Fog
7:00 AM 31 °F - 30 °F 95% 30.46 in - Calm Calm - -  
7:00 AM 30.2 °F - 30.2 °F 100% 30.42 in 6.2 mi Calm Calm - N/A Fog Mostly Cloudy
7:30 AM 32.0 °F - 32.0 °F 100% 30.42 in 6.2 mi NW 1.2 mph - N/A   Mostly Cloudy
8:00 AM 33.8 °F 30.8 °F 32.0 °F 93% 30.42 in 6.2 mi South 3.5 mph - N/A   Partly Cloudy
8:30 AM 37.4 °F 34.9 °F 33.8 °F 87% 30.45 in 6.2 mi SSE 3.5 mph - N/A   Scattered Clouds
9:00 AM 39 °F - 36 °F 84% 30.50 in - SE 4.6 mph - -  
9:00 AM 39.2 °F 35.9 °F 35.6 °F 87% 30.45 in 6.2 mi SE 4.6 mph - N/A   Mostly Cloudy
9:30 AM 42.8 °F 40.1 °F 37.4 °F 81% 30.45 in 6.2 mi ESE 4.6 mph - N/A   Scattered Clouds
10:00 AM 45 °F - 37 °F 66% 30.49 in - SW 5.8 mph - -  
10:00 AM 44.6 °F 41.4 °F 37.4 °F 76% 30.45 in 6.2 mi SW 5.8 mph - N/A   Partly Cloudy
10:30 AM 46.4 °F 43.5 °F 37.4 °F 71% 30.45 in 6.2 mi SW 5.8 mph - N/A   Partly Cloudy
11:00 AM 50.0 °F - 37.4 °F 62% 30.45 in 6.2 mi SW 4.6 mph - N/A   Partly Cloudy
11:30 AM 51.8 °F - 39.2 °F 62% 30.42 in 6.2 mi West 4.6 mph - N/A   Partly Cloudy
12:00 PM 52 °F - 39 °F 50% 30.45 in - WNW 5.8 mph - -  
12:00 PM 51.8 °F - 39.2 °F 62% 30.39 in 6.2 mi WNW 5.8 mph - N/A   Partly Cloudy
12:30 PM 53.6 °F - 39.2 °F 58% 30.39 in 6.2 mi WNW 5.8 mph - N/A   Partly Cloudy
1:00 PM 54 °F - 38 °F 44% 30.43 in - West 8.1 mph - -  
1:00 PM 55.4 °F - 39.2 °F 54% 30.39 in 6.2 mi West 8.1 mph - N/A   Partly Cloudy
1:30 PM 53.6 °F - 37.4 °F 54% 30.39 in 6.2 mi SW 4.6 mph - N/A   Partly Cloudy
2:00 PM 55.4 °F - 37.4 °F 51% 30.36 in 6.2 mi WNW 3.5 mph - N/A   Partly Cloudy
2:30 PM 55.4 °F - 37.4 °F 51% 30.36 in 6.2 mi West 6.9 mph - N/A   Partly Cloudy
3:00 PM 57 °F - 39 °F 39% 30.40 in - NNW 3.5 mph - -  
3:00 PM 57.2 °F - 39.2 °F 51% 30.36 in 6.2 mi NNW 3.5 mph - N/A   Partly Cloudy
3:30 PM 57.2 °F - 37.4 °F 48% 30.36 in 6.2 mi WNW 8.1 mph - N/A   Partly Cloudy
4:00 PM 56 °F - 38 °F 39% 30.39 in - WNW 5.8 mph - -  
4:00 PM 55.4 °F - 37.4 °F 51% 30.36 in 6.2 mi WNW 5.8 mph - N/A   Partly Cloudy
4:30 PM 55.4 °F - 37.4 °F 51% 30.33 in 6.2 mi NW 3.5 mph - N/A   Partly Cloudy
5:00 PM 51.8 °F - 39.2 °F 62% 30.33 in 6.2 mi Calm Calm - N/A   Partly Cloudy
5:30 PM 44.6 °F 42.2 °F 37.4 °F 76% 30.33 in - ESE 4.6 mph - N/A   Clear
6:00 PM 42 °F - 38 °F 79% 30.39 in - East 5.8 mph - -  
6:00 PM 42.8 °F 39.3 °F 37.4 °F 81% 30.33 in - East 5.8 mph - N/A   Clear
6:30 PM 41.0 °F - 37.4 °F 87% 30.33 in 6.2 mi Calm Calm - N/A   Unknown
7:00 PM 39 °F - 36 °F 87% 30.39 in - SSE 3.5 mph - -  
7:00 PM 39.2 °F 37.0 °F 37.4 °F 93% 30.36 in 6.2 mi SSE 3.5 mph - N/A   Unknown
7:30 PM 37.4 °F - 35.6 °F 93% 30.36 in 6.2 mi Calm Calm - N/A   Unknown
8:00 PM 37.4 °F - 35.6 °F 93% 30.36 in 6.2 mi Calm Calm - N/A   Unknown
8:30 PM 35.6 °F - 35.6 °F 100% 30.36 in 6.2 mi Calm Calm - N/A   Unknown
9:00 PM 35 °F - 34 °F 92% 30.42 in - South 2.3 mph - -  
9:00 PM 35.6 °F - 33.8 °F 93% 30.36 in 6.2 mi South 2.3 mph - N/A   Unknown
9:30 PM 33.8 °F - 33.8 °F 100% 30.36 in 6.2 mi Calm Calm - N/A   Unknown
10:00 PM 34 °F - 33 °F 97% 30.42 in - North 3.5 mph - -  
10:00 PM 33.8 °F 30.8 °F 33.8 °F 100% 30.36 in 6.2 mi North 3.5 mph - N/A   Unknown
10:32 PM 32.0 °F 28.7 °F 30.2 °F 93% 30.36 in 3.7 mi East 3.5 mph - N/A   Scattered Clouds
11:00 PM 33.8 °F - 33.8 °F 100% 30.36 in 5.0 mi East 2.3 mph - N/A   Unknown
11:09 PM 33.8 °F - 32.0 °F 93% 30.36 in 6.2 mi Calm Calm - N/A   Scattered Clouds
11:30 PM 32.0 °F - 32.0 °F 100% 30.36 in 6.2 mi Calm Calm - N/A   Scattered Clouds